Retour au catalogue

SPOT 1

ActifSciencePO
NORAD 16613·PAYLOAD·🇫🇷 France

Lancé Feb 22, 1986 depuis Guiana Space Centre

Loading…

Prochains Passages (prochaines 24 heures)

TLE

FraisSource: Space-Track

Époque: Sep 14, 2026, 14:10 UTC

1 16613U 86019A   26257.59056896  .00001252  00000-0  18621-3 0  9992
2 16613  98.6661 196.5301 0127947 345.4660  14.2879 14.71673450824146

Suivez SPOT 1 en temps réel avec AllMySat

Download on the App Store